一网星座-0039星 (ONEWEB-0039 )

导读

ONEWEB-0039是英国OneWeb低轨卫星星座中一颗通信卫星,于2020年2月6日搭乘俄罗斯联盟号火箭在拜科努尔航天发射场成功发射。它重约147千克,运行在1200公里近地轨道,设计寿命7年,配备Ku/Ka波段天线,单星吞吐量可达8Gbps,为全球提供宽带互联网接入服务,助力填补偏远地区网络覆盖缺口,是OneWeb星座组网建设的重要组成部分。

Basic Information
目录编号:
45146
目录名称:
ONEWEB-0039
国际标识:
2020-008R
轨道中心:
EARTH
卫星名称:
一网星座-0039星
卫星全名:
一网星座-0039星 (ONEWEB-0039 )
卫星状态:
在轨 (已飞行2409 天)
发射日期:
2020-02-06 UTC
国别 :
英国 (GB)
星等 :
--
This satellite is enrolled in the Space Conjunction Data Service (SCDS) and the current flight risk assessment level is: No High Risk
Orbit Information
数据来源 国际轨道数据 AOE轨道数据
星历时间 2026-09-11T14:19:17+0800
9小时前
查看轨道信息
2026-09-06T06:00:00+0800
5天前
查看轨道信息
半长轴 7599.854km 7599.865km
偏心率 0.0002247 0.0002042
轨道倾角 87.890° 87.887°
近地点辐角 104.860° 104.293°
升交点赤经 19.127° 20.190°
平近点角 255.277° 247.926°
近地点 1220.009km 1220.176km
远地点 1223.425km 1223.28km
周期 109.892分钟 109.893分钟
每日圈数 13.10373 13.103701
Detailed Information
平衡模式:
三轴稳定
覆盖范围:
全球
运营商:
一网卫星公司
运营商所在国:
英国
制造商(研发单位):
一网卫星公司
制造商所在国:
英国
使用方式:
暂无
Satellite Introduction
OneWeb卫星网络由648颗重约125公斤的微型卫星组成,运行在1200公里的轨道上。 每颗卫星都能够提供至少每秒8千兆位的吞吐量,以使用其高吞吐量的Ku频段有效载荷为家庭和移动平台提供互联网接入。该卫星仍在工作。
2D Orbit Map
3D Orbit Map
Orbit Altitude Analysis Chart
Orbit Inclination Analysis Chart
Orbit Comprehensive Analysis Chart
View Comprehensive Chart
Miss Distance Evolution Trend with All Objects
Collision Probability Evolution Trend with All Objects